Flag for Netherlands Weather past 2 weeks in Philipsburg, Saint Martin, Netherlands

Now
82 °F

Passing clouds.


Feels Like: 87 °F
Forecast: 82 / 87 °F
Wind: 9 mph from East

Location: Juliana Airport - Saint Maarten

Current Time: Jul 29, 2015 at 3:06:46 AM

Latest Report: Jul 29, 2015 at 2:00 AM


Visibility: N/A

Pressure: 30.01 "Hg

Humidity: 70%

Dew point: 72 °F

Location of PhilipsburgLocation

Historic Weather in Philipsburg — Graph

°F

Philipsburg temperature yesterday

Maximum temperature yesterday: 88 °F (at 11:00 AM)
Minimum temperature yesterday: 82 °F (at 12:00 AM)
Average temperature yesterday: 84 °F

Past Weeks' High & Low Weather Summary

 TemperatureHumidityPressure
High88 °F (Jul 15, 1:00 PM)89% (Jul 18, 7:00 AM)30.12 "Hg (Jul 18, 7:00 AM)
Low75 °F (Jul 18, 7:00 AM)55% (Jul 15, 1:00 PM)29.98 "Hg (Jul 20, 4:00 PM)
Average83 °F71%30.05 "Hg
* Reported Jul 14 2:00 AM — Jul 29 2:00 AM, Philipsburg, Weather by CustomWeather, © 2015

Note: Actual official high and low records may vary slightly from our data, if they occured in-between our weather recording intervals... More about our weather records

Advertising

Philipsburg weather history for previous 24 hours

 ConditionsComfort  
Time TempWeatherWind HumidityBarometerVisibility
2:00 AM
Wed, Jul 29
82 °FPassing clouds.9 mph70%30.01 "HgN/A
1:00 AM82 °FPassing clouds.9 mph74%30.01 "HgN/A
12:00 AM82 °FPassing clouds.14 mph74%30.04 "HgN/A
11:00 PM
Tue, Jul 28
82 °FPassing clouds.12 mph74%30.04 "HgN/A
10:00 PM82 °FPassing clouds.6 mph74%30.04 "HgN/A
9:00 PM82 °FPassing clouds.10 mph70%30.04 "HgN/A
8:00 PM82 °FPassing clouds.12 mph70%30.01 "HgN/A
7:00 PM82 °FPassing clouds.9 mph70%30.01 "HgN/A
6:00 PM84 °FScattered clouds.12 mph66%30.01 "HgN/A
4:00 PM86 °FScattered clouds.13 mph66%29.98 "HgN/A
3:00 PM86 °FPassing clouds.14 mph66%30.01 "HgN/A
2:00 PM86 °FScattered clouds.14 mph66%30.01 "HgN/A
1:00 PM86 °FPartly sunny.14 mph66%30.04 "HgN/A
12:00 PMN/APartly sunny.16 mphN/A30.04 "HgN/A
11:00 AM88 °FPartly sunny.14 mph62%30.07 "HgN/A
10:00 AM86 °FPartly sunny.9 mph66%30.07 "HgN/A
9:00 AM84 °FScattered clouds.12 mph66%30.07 "HgN/A
8:00 AM84 °FScattered clouds.12 mph66%30.04 "HgN/A
7:00 AM82 °FPassing clouds.9 mph70%30.04 "HgN/A
6:00 AM82 °FPassing clouds.9 mph74%30.01 "HgN/A
5:00 AM82 °FPassing clouds.6 mph70%30.01 "HgN/A
3:00 AM82 °FPassing clouds.15 mph74%30.01 "HgN/A
Weather by CustomWeather, © 2015

See weather overviewHow to use our weather pages